Regional Weather Roundup
Issued by NWS Jackson, KY

Home | Current Version | Previous Version | Text Only | Print | Product List | Glossary On
Versions: 1 2 3 4 5 6 7 8 9 10 11 12 13 14 15 16 17 18 19 20 21 22 23 24 25 26 27 28 29 30 31 32 33 34 35 36 37 38 39 40 41 42 43 44 45 46 47 48 49 50
000
ASUS43 KJKL 230310
RWRJKL

EAST KENTUCKY HOURLY WEATHER ROUNDUP
NATIONAL WEATHER SERVICE JACKSON KY
1100 PM EDT THU JUN 22 2017

NOTE: "FAIR" INDICATES FEW OR NO CLOUDS BELOW 12,000 FEET WITH
NO SIGNIFICANT WEATHER AND/OR OBSTRUCTIONS TO VISIBILITY.

* THESE REPORTS ARE NOT UNDER NWS QUALITY CONTROL AND MAY NOT
  REPORT WEATHER SUCH AS PRECIPITATION AND FOG.

KYZ079-080-083-085-087-088-110-112-115-119-120-230400
...EASTERN KENTUCKY...

CITY           SKY/WX    TMP DP  RH WIND       PRES   REMARKS
JACKSON        CLOUDY    69  67  93 VRB3      29.98S
LONDON         MOCLDY    71  67  87 S7        29.98R
SOMERSET*      HVY RAIN  70  70 100 S3        29.97S
MONTICELLO*    CLOUDY    74  71  91 E7        29.97R
WILLIAMSBURG*  CLOUDY    70  70 100 SE5       30.00R
MIDDLESBORO*   CLOUDY    70  70 100 CALM      30.02S
HARLAN APT*    CLOUDY    72  66  83 CALM      30.03R
PIKE CO APT*   CLOUDY    69  69 100 S3        30.00S
BIG SANDY APT* MOCLDY    71  70  98 S8        29.99S
MOREHEAD APT*  CLOUDY    70  68  94 SE5       29.97S
$$

KYZ035-036-041-042-044-050-067-078-099-230400
...CENTRAL KENTUCKY...

CITY           SKY/WX    TMP DP  RH WIND       PRES   REMARKS
MT STERLING*   CLOUDY    70  70 100 S6        29.96S
FLEMING/MASON* DRIZZLE   69  68  99 S9        29.94S
DANVILLE*      MOCLDY    70  70 100 S7        29.95R
LEXINGTON      MOCLDY    71  68  90 S9        29.93R
FRANKFORT      CLOUDY    72  68  87 S5        29.90R
LOUISVILLE     MOCLDY    74  72  93 S9        29.87R
LEBANON*         N/A     73  73 100 S8        29.92R
GLASGOW*       PTCLDY    74  74 100 S10G16    29.90R
BOWLING GREEN  CLOUDY    77  74  90 S13       29.87S
$$

KYZ091>093-OHZ055-061-077-WVZ005-015-034-035-042-230400
...SOUTHERN OHIO/WEST VIRGINIA...

CITY           SKY/WX    TMP DP  RH WIND       PRES   REMARKS
COVINGTON      LGT RAIN  70  69  97 S13       29.89S
COLUMBUS       CLOUDY    76  68  76 S12       29.92S
DAYTON         CLOUDY    73  68  84 S13G22    29.90S
WILMINGTON     LGT RAIN  70  70 100 S5        29.91S
HUNTINGTON     LGT RAIN  71  69  93 E5        29.96F FOG
CHARLESTON     HVY RAIN  71  68  90 S9        29.99F
PINEVILLE*     CLOUDY    70  68  95 MISG      30.09F
BECKLEY        RAIN      66  64  93 SE6       30.11S FOG
BLUEFIELD      CLOUDY    65  64  97 CALM      30.12
LOGAN CO APT*  CLOUDY    70  68  94 CALM      30.01F
$$

VAZ002-007-008-TNZ017-027-036-066-071-230400
...SOUTHWEST VIRGINIA/EAST TENNESSEE...

CITY           SKY/WX    TMP DP  RH WIND       PRES   REMARKS
WISE*          CLOUDY    68  68 100 CALM      30.09S
JONESVILLE*    CLOUDY    72  70  94 CALM      30.06R
ABINGDON*      DRIZZLE   71  71  98 CALM      30.08S
BRISTOL        CLOUDY    72  70  93 CALM      30.05R
MORRISTOWN*    CLOUDY    72  72 100 CALM      30.02R
SEVIERVILLE*   CLOUDY    72  72 100 CALM      30.01R
KNOXVILLE      CLOUDY    73  70  90 CALM      30.00R
LAFOLLETTE*      N/A     72  72 100 CALM      30.04R
OAK RIDGE      CLOUDY    74  72  93 CALM      30.01R
CROSSVILLE     CLOUDY    71  69  93 S6        30.02S
NASHVILLE      MOCLDY    76  73  91 S10       29.89S
$$

...KEY TO REMARKS...
VSB - VISIBILITY IN MILES
WCI - WIND CHILL INDEX
HX  - HEAT INDEX

$$



USA.gov is the U.S. government's official web portal to all federal, state and local government web resources and services.